Date,TemperatureHighF,TemperatureAvgF,TemperatureLowF,DewpointHighF,DewpointAvgF,DewpointLowF,HumidityHigh,HumidityAvg,HumidityLow,PressureMaxIn,PressureMinIn,WindSpeedMaxMPH,WindSpeedAvgMPH,GustSpeedMaxMPH,PrecipitationSumIn
2013-1-1,44.6,41.8,38.8,38.4,33.2,27.7,85,71,64,29.68,29.59,13,5,13,0.28
2013-1-2,41.7,38.2,34.0,27.7,26.3,24.7,76,62,52,29.74,29.65,10,2,10,0.00
2013-1-3,48.6,42.8,32.7,28.3,25.3,23.6,78,52,38,29.85,29.80,8,3,8,0.00
2013-1-4,50.9,46.7,41.0,29.9,27.1,25.4,64,47,39,29.91,29.77,9,2,9,0.00
2013-1-5,51.8,45.8,39.9,39.3,35.6,33.6,91,68,51,29.77,29.62,13,2,13,0.00
2013-1-6,55.6,48.5,37.0,34.4,27.0,23.8,81,45,30,29.80,29.71,11,3,11,0.00
2013-1-7,55.8,47.8,32.5,31.9,28.5,22.6,67,48,37,29.74,29.53,13,3,13,0.00
2013-1-8,49.3,48.1,46.9,48.7,45.1,34.0,98,90,60,29.50,29.35,11,4,11,1.51
2013-1-9,56.3,53.3,49.3,55.8,52.7,48.7,98,98,96,29.50,29.35,20,6,20,1.34
2013-1-10,60.1,56.4,51.3,57.4,48.0,42.1,98,75,53,29.38,29.32,13,5,13,0.04
2013-1-11,69.6,60.7,48.0,62.4,50.3,43.0,91,70,44,29.35,29.23,13,7,13,0.00
2013-1-12,69.6,53.8,38.1,69.0,49.7,31.7,98,86,72,29.32,29.09,15,6,17,1.02
2013-1-13,42.8,37.5,33.8,22.9,20.5,16.7,63,51,41,29.62,29.53,17,7,17,0.00
2013-1-14,43.7,37.5,29.5,23.6,19.4,15.0,58,48,41,29.74,29.62,10,6,10,0.00
2013-1-15,37.4,35.2,30.7,28.4,25.7,20.4,89,69,54,29.62,29.56,15,6,15,0.08
2013-1-16,47.5,40.5,28.6,23.7,19.5,16.2,66,44,34,29.71,29.56,10,4,10,0.00
2013-1-17,59.2,51.8,37.0,32.0,28.7,23.2,61,42,34,29.85,29.74,13,4,13,0.00
2013-1-18,60.6,52.0,35.4,33.5,31.5,28.3,78,47,35,29.91,29.71,16,4,16,0.00
2013-1-19,64.6,55.6,42.1,43.0,41.3,37.5,88,60,43,29.68,29.56,15,5,15,0.00
2013-1-20,67.1,58.5,40.8,46.4,40.6,36.7,92,54,36,29.62,29.47,13,5,13,0.00
2013-1-21,56.8,51.9,42.3,32.6,29.1,21.4,49,41,38,29.71,29.62,13,4,13,0.00
2013-1-22,63.5,58.4,48.4,44.4,41.1,31.4,71,53,45,29.71,29.59,12,4,12,0.00
2013-1-23,72.1,68.3,59.9,53.2,51.4,49.2,75,55,45,29.68,29.53,15,6,15,0.00
2013-1-24,74.8,67.3,55.4,59.7,56.8,53.0,98,72,47,29.59,29.44,15,5,15,0.00
2013-1-25,54.0,52.0,50.0,45.7,40.8,37.0,84,66,60,29.62,29.53,13,4,13,0.00
2013-1-26,52.0,50.9,48.4,49.7,48.6,47.3,96,92,86,29.62,29.53,8,2,8,0.00
2013-1-27,73.6,67.7,58.5,62.9,58.4,54.8,98,74,54,29.50,29.32,23,8,23,0.00
2013-1-28,76.5,72.7,67.6,64.6,61.8,58.4,86,70,55,29.41,29.26,21,8,21,0.00
2013-1-29,77.2,68.8,57.2,65.3,59.5,42.0,85,73,42,29.15,28.88,28,9,28,0.16
2013-1-30,53.8,49.3,44.1,32.4,25.1,20.6,58,39,31,29.53,29.18,22,9,22,0.16
2013-1-31,67.1,54.3,35.1,29.7,24.7,19.3,57,34,22,29.62,29.53,16,4,16,0.00